Location: Zagreb
(45.8000°N, 16.0000°E)
Time: 15:45:10
(UTC+02:00)

Transit 2A Rocket - Pass Details

Date: 18 August 2022
Orbit: 593 x 907 km, 66.7° (Epoch: 25 September)

Event Time Altitude Azimuth Distance (km) Brightness Sun altitude
Rises 01:47:29 0° 332° (NNW) 2,856 8.6 -30.1°
Reaches altitude 10° 01:49:49 10° 340° (NNW) 1,969 7.8 -30.0°
Enters shadow 01:53:40 38° 40° (NE) 960 5.9 -29.8°
Maximum altitude 01:53:57 39° 50° (NE) 955 - -29.8°
Drops below altitude 10° 01:58:19 10° 120° (ESE) 2,080 - -29.6°
Sets 02:00:51 0° 128° (SE) 3,040 - -29.5°
